Location: Newark
(34.9471°N, 136.1778°E)
Time: 02:05:52
(UTC+00:00)

METEOR M2 - Pass Details

Date: 27 February 2020
Orbit: 818 x 828 km, 98.5° (Epoch: 05 April)

Event Time Altitude Azimuth Distance (km) Brightness Sun altitude
Exits shadow 09:51:16 12° 127° (SE) 2,315 ? -13.7°
Maximum altitude 09:55:35 31° 69° (ENE) 1,429 ? -14.5°
Drops below altitude 10° 10:00:14 10° 9° (N) 2,437 ? -15.5°
Sets 10:02:50 0° 360° (N) 3,374 ? -16.0°
